Location: Unspecified
(0.0000°N, 0.0000°E)
Time: 23:31:40
(UTC+00:00)

Kosmos-2004 - Pass Details

Date: 18 May 2026
Orbit: 969 x 1012 km, 83.0° (Epoch: 6 June)

Event Time Altitude Azimuth Distance (km) Brightness Sun altitude
Rises 04:12:34 0° 176° (S) 3,659 8.8 -24.4°
Reaches altitude 10° 04:15:07 10° 172° (S) 2,710 8.2 -23.8°
Maximum altitude 04:21:12 60° 93° (E) 1,098 6.5 -22.4°
Drops below altitude 10° 04:27:19 10° 14° (NNE) 2,713 8.8 -20.9°
Sets 04:29:51 0° 11° (N) 3,663 9.4 -20.3°
